Showing default

HULIANWANG DIGUI-19, 62979

Orbit data source: Space-Track

HULIANWANG DIGUI-19, 62979 is a payload satellite owned by Zhongguo Xingwang (CN) in LEO that was launched on Tue, 11 Feb 2025 UTC via a CHANG ZHENG 8A launch vehicle from the Wenchang Satellite Launch Center (WSC). Payload-class satellites include a variety of spacecraft equipped with specific instruments for various scientific and technological missions. These include communications satellites like Starlink; space stations such as the ISS; scientific satellites like the Hubble; Earth observation satellites from companies like Planet Labs, Umbra, and HawkEye 360; GPS; miniature CubeSats for education and research; and military/defense satellites.

Loading next visibility...
Identifier
62979, 2025-030J
Orbit
LEO
Country
Flag of CNCN / PRC
Related business
Manufacturer
CAST
Mission
Operational Civil Communications
Bus & Motor
GUOWANG C, Unknown motor
Mass
~800 kg wet, ~800 kg dry
Launch date (UTC)
2025-02-11 (7 months ago)
Launch vehicle
CHANG ZHENG 8A
Launch site
Wenchang Satellite Launch Center (WSC)
Object type
Payload
Rocket body
Debris
Shape & HBR
Box + 2 Pan, 5.0 m
Radar Cross Section
5.935 m², Large (>1 m²)

Expand to show TLE details & history
Last TLE update: 4 hours ago

TLE from 4 hours ago
0 HULIANWANG DIGUI-19
1 62979U 25030J   25243.61976318 -.00000069  00000-0  11953-3 0  9998
2 62979  50.0032 194.2947 0001110 347.3296  12.7548 13.29328515 27340
Epoch: 2025-08-31T14:52Z
TLE epoch observation values (Epoch: 2025-08-31T14:52:27.538Z)
Latitude
-0.00003°
Longitude
-8.85717°
Altitude
1,148.988 km
Speed
7.28 km/s
True Right ascension
12h 57m 10s
True Declination
0° 00' 00"
Sunlit
Object was in daylight at epoch
Visualization orbit readout
Latitude
Unknown
Longitude
Unknown
Altitude
Unknown
Speed
Unknown
Apparent Right ascension
Unknown
Apparent Declination
Unknown
Sunlit
N/A
Visualization observer readout
Local Sidereal Time
10:23:06
Azimuth
Unknown
Elevation
Unknown
Doppler factor
Unknown
Orbital elements
Apogee altitude
1,150.838 km
Perigee altitude
1,149.166 km
Semi-major axis
7,528.139 km
Eccentricity
0.00011
Inclination
50.0032°
RAAN
194.2947°
Arg. of periapsis
347.3296°
True anomaly
12.75761°
Mean anomaly
12.7548°
Eccentric anomaly
12.7562°
Mean motion
3.32286 °/min
Orbital period
108.34 mins
BSTAR
0.00011953
Loading maneuver chart data...
Computing Atmospheric mass density...
Loading historical data...
Loading historical data...
Loading historical data...
Loading historical data...
Loading historical data...
Loading historical data...
Loading historical data...

Documentation

Showing up to 5 results
|